Location: Newark
(60.6414°N, 46.5703°E)
Time: 00:31:27
(UTC+00:00)

N. Korean satellite - Visible Passes

Search period start: 19 October 2019 00:00
Search period end: 29 October 2019 00:00
Orbit: 455 x 508 km, 97.2° (Epoch: 18 October)

Date Brightness Start Highest point End Pass type
(mag) Time Alt. Az. Time Alt. Az. Time Alt. Az.
19 Oct 9.7 02:02:34 10° NE 02:05:17 20° E 02:08:01 10° SE visible
19 Oct 8.6 14:20:53 10° SSW 14:24:03 33° W 14:27:16 10° NNW visible
20 Oct 10.2 01:38:01 10° ENE 01:39:42 13° E 01:41:23 10° ESE visible
21 Oct 7.9 02:44:53 10° NNE 02:48:22 45° E 02:51:53 10° S visible
21 Oct 10.0 15:05:07 10° SW 15:07:12 15° W 15:09:20 10° NW visible
22 Oct 9.0 02:19:45 10° NNE 02:22:55 28° E 02:26:06 10° SSE visible
22 Oct 9.3 14:38:46 10° SSW 14:41:39 24° W 14:44:35 10° NW visible
23 Oct 9.8 01:54:51 10° NE 01:57:23 18° E 01:59:55 10° SE visible
23 Oct 8.2 14:12:52 10° S 14:16:09 39° W 14:19:30 10° NNW visible
24 Oct 10.4 01:30:36 10° ENE 01:31:47 11° E 01:32:57 10° ESE visible
24 Oct 7.1 03:02:17 10° NNE 03:05:53 66° ESE 03:09:32 10° S visible
24 Oct 10.4 15:23:54 10° W 15:24:53 11° W 15:25:53 10° WNW visible
25 Oct 8.3 02:37:03 10° NNE 02:40:29 39° E 02:43:58 10° SSE visible
25 Oct 9.8 14:56:50 10° SW 14:59:16 18° W 15:01:43 10° NW visible
26 Oct 9.3 02:11:57 10° NE 02:15:00 24° E 02:18:04 10° SSE visible
26 Oct 8.9 14:30:39 10° SSW 14:33:42 28° W 14:36:49 10° NNW visible
27 Oct 10.0 01:47:09 10° NE 01:49:27 16° E 01:51:45 10° SE visible
27 Oct 7.8 14:04:51 10° S 14:08:14 46° W 14:11:42 10° NNW visible
28 Oct 7.4 02:54:23 10° NNE 02:58:00 56° ESE 03:01:39 10° S visible
28 Oct 10.1 15:15:13 10° WSW 15:16:54 13° W 15:18:35 10° NW visible
